Theta_e
338 342 343 346 346 347 350 351 352 350 351 352 352 352 350 350 351 351 351 351 351 351 351 351 351 351 351 350 349 351 349 348 348 348 348 347 347 347 346 347 345 346 345 345 344 345 345 343 343 344 344 344 345 345 345 346 346 344 341 342 344 345 345 346 346 346 345 345 347 348 347 348 349 348 349 348 346 345 344 346 347 344 345 345 348
336 339 343 346 347 348 351 350 350 350 351 352 352 351 350 351 351 351 351 350 350 351 350 351 350 350 350 350 350 349 348 348 348 347 347 346 346 346 346 346 345 345 345 344 344 343 342 342 341 341 343 344 344 344 344 344 344 343 341 341 343 345 346 346 346 345 344 344 344 344 344 345 346 347 347 347 346 346 343 343 345 344 344 347 346
338 341 342 347 350 350 349 349 348 350 352 352 352 351 350 350 351 351 350 350 350 350 350 350 350 349 349 349 349 348 348 348 347 347 346 347 347 346 346 346 345 344 344 343 342 342 340 339 339 340 341 342 342 342 343 342 341 341 341 343 343 346 345 346 345 344 343 343 342 341 341 342 343 344 345 346 345 345 343 343 344 344 343 346 346
340 342 344 347 348 349 350 350 349 348 351 352 351 350 349 349 350 350 350 349 349 349 348 348 349 348 348 348 349 349 349 349 348 347 347 347 346 346 345 345 344 343 343 342 341 340 338 338 337 339 339 339 339 340 340 340 340 341 343 343 343 345 346 345 344 344 343 342 341 338 337 334 336 342 344 345 345 345 342 343 342 343 343 344 345
340 343 346 345 346 347 351 351 350 350 350 350 351 350 349 349 349 349 349 348 348 347 347 347 347 348 348 348 348 349 348 348 347 347 346 346 346 346 345 344 343 343 342 341 339 339 337 337 336 337 338 337 337 338 338 339 341 342 343 343 343 344 345 344 344 342 341 340 339 336 332 333 333 339 341 343 343 341 341 342 342 342 340 340 341
340 345 348 345 345 347 348 351 350 350 349 351 350 350 350 349 349 349 348 348 347 346 346 346 346 347 347 347 347 347 348 347 347 347 346 346 346 345 344 343 343 342 342 340 338 337 336 335 336 337 337 337 337 337 337 339 341 342 342 342 343 344 344 343 342 340 339 338 336 332 330 331 333 334 339 340 340 338 338 339 340 340 339 338 338
343 347 348 346 344 345 345 350 349 350 349 351 350 350 349 349 349 348 348 347 346 346 346 346 346 347 347 346 346 347 347 347 346 346 346 345 345 343 343 343 342 342 342 340 337 336 335 334 335 337 336 336 336 337 338 339 341 342 342 342 343 343 343 341 340 339 337 333 329 329 329 329 330 331 337 337 339 338 336 336 337 337 338 337 337
344 347 348 346 344 344 346 350 350 349 350 349 350 350 349 349 349 348 347 347 346 346 346 346 346 346 346 346 346 346 347 347 346 346 345 345 344 343 342 342 342 341 341 339 336 334 334 333 335 336 335 334 335 336 337 339 340 341 341 341 342 343 341 339 338 337 335 328 327 327 328 328 328 330 337 336 337 337 335 336 336 337 337 337 334
345 347 347 345 343 343 345 348 349 348 349 350 350 349 349 349 349 349 347 346 346 346 346 346 346 346 346 346 345 346 346 346 345 344 344 344 342 342 342 341 341 341 340 338 335 333 331 332 334 335 334 334 334 335 336 338 339 340 340 341 341 340 338 337 335 333 330 327 326 326 326 326 326 328 335 334 335 335 334 333 334 336 336 334 334
345 347 346 344 342 342 344 347 348 349 348 349 349 349 349 349 349 348 347 346 346 345 346 346 346 346 346 345 346 346 346 345 345 344 343 342 342 342 341 341 340 339 339 337 335 332 330 331 332 333 333 333 333 334 335 336 337 340 340 340 339 338 336 334 332 330 325 324 324 325 330 335 325 328 334 334 334 333 332 333 332 332 333 333 334
343 346 346 343 342 342 347 349 349 349 347 348 347 349 349 349 348 347 347 346 346 346 346 346 346 346 346 346 345 345 344 344 343 343 342 342 342 341 341 340 339 338 337 336 334 331 329 330 331 332 333 333 333 333 335 336 338 339 339 339 338 337 335 332 329 324 324 324 324 324 328 335 326 326 336 334 333 332 331 331 332 332 333 333 334
343 345 346 343 343 341 346 348 349 348 347 348 348 349 348 348 349 347 347 347 347 346 346 346 346 346 346 345 345 344 344 343 343 343 342 342 341 341 340 339 338 337 336 334 332 329 327 328 329 330 331 332 332 332 335 335 336 338 337 337 336 334 332 330 325 324 323 323 324 325 323 324 326 331 334 333 332 332 331 331 332 332 333 333 333
342 344 345 345 341 339 344 347 347 348 348 348 347 347 348 348 347 347 347 347 346 346 346 346 346 346 346 346 345 344 344 343 343 342 342 341 341 341 340 338 338 337 335 334 331 328 327 327 329 329 331 331 331 332 333 333 335 336 335 335 333 331 329 328 322 323 322 322 323 323 323 324 325 334 333 332 333 332 332 332 332 332 332 333 333
341 344 345 346 343 342 341 344 346 348 348 347 346 346 348 348 347 347 347 346 346 346 346 347 346 346 346 345 345 344 343 342 342 342 342 342 341 341 339 338 336 336 335 333 330 326 324 326 327 328 331 330 331 331 331 332 334 335 333 332 330 328 325 324 324 320 321 321 323 323 323 325 327 335 333 331 332 332 332 331 331 331 331 332 332
342 344 345 346 345 342 340 340 342 344 346 347 345 343 345 348 348 347 347 347 346 346 345 346 346 346 345 345 345 344 343 343 342 342 341 341 341 339 338 337 336 336 334 331 329 326 323 324 326 329 329 329 329 330 329 330 332 332 331 329 327 325 322 317 318 317 318 320 320 322 322 325 335 334 332 331 332 332 332 332 331 331 330 330 331
340 342 343 344 344 342 343 341 338 340 342 345 344 344 345 347 347 348 347 347 346 345 346 345 346 345 345 344 344 343 343 342 342 342 341 341 340 338 337 336 336 335 333 331 330 328 324 325 327 327 327 327 327 327 326 327 329 329 328 327 324 322 320 318 315 315 315 317 318 320 321 325 335 334 332 330 332 331 331 332 330 329 330 329 330
329 333 336 337 340 343 343 342 339 335 336 338 339 341 341 344 346 346 347 346 346 346 346 345 345 345 344 344 344 343 342 342 342 341 341 341 339 337 337 336 335 334 333 331 330 328 325 323 324 325 324 324 325 325 324 324 326 326 325 324 321 320 317 315 310 311 313 316 316 318 321 327 332 333 331 329 330 331 331 331 331 328 329 329 329
320 321 323 326 327 330 337 342 341 342 341 335 333 337 340 342 342 342 343 344 344 345 345 344 345 344 343 341 340 339 340 341 341 341 340 339 338 337 336 335 335 334 332 331 329 328 326 324 321 321 321 320 320 322 322 321 322 322 322 321 319 317 314 310 302 303 307 314 311 316 320 333 333 333 331 330 329 330 329 328 329 329 329 329 329
317 318 318 317 318 321 326 330 341 342 341 340 339 338 335 337 338 337 339 341 342 341 341 342 340 340 339 337 336 335 334 335 335 337 338 336 335 333 336 335 334 333 332 330 329 328 326 324 321 320 319 320 320 319 318 319 319 318 319 317 316 314 311 305 300 299 302 306 309 312 320 332 334 333 331 328 328 330 329 329 330 328 328 329 329
315 315 316 316 316 318 322 325 326 333 339 340 340 339 331 331 335 336 337 338 337 338 338 337 333 332 331 331 329 330 329 329 328 332 331 333 331 330 333 335 333 332 331 331 330 328 328 326 322 320 319 320 322 322 320 318 318 316 315 313 311 309 304 301 299 299 300 305 310 311 325 328 335 334 330 333 334 335 335 336 336 334 329 329 329
314 314 314 314 314 315 318 319 320 322 327 337 339 339 336 330 331 330 330 331 333 333 334 328 324 324 325 324 325 329 327 328 330 331 325 330 324 326 331 334 333 332 331 331 330 329 328 326 324 320 321 320 317 316 318 320 318 316 313 310 306 300 301 301 300 301 302 304 309 313 324 326 330 333 332 332 332 331 331 332 334 335 335 335 335
310 311 313 314 314 315 316 317 319 320 321 329 338 340 337 333 338 336 333 329 328 326 329 331 329 329 323 327 331 329 327 328 330 329 330 328 327 324 326 331 334 332 331 331 330 329 328 326 325 323 322 319 314 306 307 313 316 314 311 307 300 299 300 300 299 300 302 304 309 318 323 325 327 329 329 329 328 327 328 329 330 331 332 334 333
309 309 311 312 313 313 314 316 317 318 319 322 332 339 338 337 338 337 334 329 329 331 332 330 332 331 329 331 330 329 325 327 331 331 330 324 328 323 325 329 332 330 330 331 330 329 327 326 325 323 320 316 308 306 306 306 306 310 308 304 301 301 301 301 300 299 300 306 309 321 323 324 325 328 328 327 326 326 327 328 329 330 330 331 334
304 306 308 311 311 312 313 315 316 318 319 319 325 335 339 338 339 338 335 333 333 334 334 333 332 331 331 332 332 330 326 326 327 325 326 329 326 322 324 324 325 325 324 325 326 327 326 324 323 320 315 310 308 308 308 307 307 307 306 305 304 303 303 301 300 299 300 305 311 321 323 324 325 326 326 326 324 325 327 328 329 329 329 330 329
302 304 305 307 309 311 312 314 316 318 319 318 320 328 336 338 338 337 336 334 333 333 332 332 333 333 332 332 333 331 330 331 330 330 330 329 328 328 328 328 327 324 321 320 318 316 314 312 312 311 309 310 309 308 309 309 308 307 306 306 305 304 303 302 301 300 301 304 313 319 321 324 325 325 325 325 325 325 325 325 326 327 328 328 328
302 304 305 306 307 309 310 313 316 319 321 318 323 327 331 337 337 336 335 333 332 330 329 329 330 330 331 331 332 332 332 332 331 331 329 329 329 328 328 328 325 324 324 322 318 315 313 312 311 310 309 309 308 307 307 307 308 307 306 305 304 303 301 300 300 300 301 304 310 317 320 322 323 325 326 327 326 325 325 326 325 325 325 326 326
304 303 304 305 307 307 309 313 318 321 323 327 328 329 329 330 331 332 329 328 328 326 326 326 326 327 328 327 329 330 332 331 331 329 328 328 327 327 327 327 326 325 324 324 319 315 313 312 311 310 310 310 309 307 307 307 307 307 306 304 303 301 300 299 299 298 299 300 306 314 317 319 323 324 325 326 326 326 325 325 325 325 325 325 325
306 306 306 306 309 311 313 315 321 323 326 327 327 326 326 325 324 323 324 322 323 323 323 323 323 323 323 326 325 327 326 328 327 326 326 327 326 326 326 326 325 325 324 323 318 315 314 312 311 310 310 310 308 307 307 306 306 305 303 302 300 299 298 298 298 297 297 296 299 307 311 314 316 318 321 323 325 325 325 325 326 326 326 326 325
306 307 308 309 311 312 313 320 323 325 325 325 323 322 322 321 321 320 319 319 320 319 320 320 321 321 321 321 322 323 323 323 323 324 324 323 322 322 322 322 322 322 322 320 318 314 312 310 308 308 308 307 307 306 305 305 304 303 301 300 298 298 297 297 297 296 295 295 295 300 307 309 312 313 315 319 320 322 324 325 325 325 326 326 325
306 307 308 309 310 311 313 315 318 320 320 320 319 319 319 317 317 317 317 315 316 316 318 318 319 319 319 319 320 321 321 320 319 319 319 318 318 318 318 318 318 319 319 317 315 312 308 305 304 304 304 304 303 303 304 303 303 301 300 299 297 297 297 296 296 295 295 295 295 295 303 305 307 310 312 314 316 318 320 322 324 326 326 326 326
306 306 307 308 310 310 311 312 315 315 317 317 316 316 315 314 313 314 314 314 315 314 315 316 317 317 317 318 318 318 319 319 318 317 316 316 315 314 313 313 312 312 312 309 307 305 303 303 303 302 302 302 302 302 303 302 300 299 298 297 296 296 295 295 295 295 295 294 294 294 295 301 303 305 307 310 313 314 316 318 321 323 324 324 324
305 306 307 308 309 309 309 310 311 312 312 312 312 312 311 311 311 310 311 312 313 313 311 311 312 315 316 316 316 315 315 315 315 314 314 313 312 311 310 309 307 307 306 305 303 302 302 301 302 302 302 302 301 301 302 301 299 298 297 296 295 294 294 293 293 293 293 293 293 293 293 295 299 301 302 306 310 311 312 313 316 318 320 321 322
305 306 307 307 307 308 308 308 309 309 309 309 309 309 309 309 309 309 309 309 310 310 310 309 309 311 313 314 313 313 313 312 312 311 310 310 309 307 306 305 304 303 302 302 302 302 301 301 301 301 301 301 301 301 301 300 298 297 296 294 292 291 291 290 290 290 291 291 291 291 291 292 292 296 298 299 303 308 309 310 312 315 316 317 318
305 305 305 305 307 308 308 308 307 307 307 308 308 306 306 307 307 308 308 308 307 308 307 306 306 306 307 308 310 310 311 311 310 309 308 307 306 304 303 301 300 299 299 298 299 299 298 299 299 299 300 299 299 299 299 298 297 296 294 293 291 290 289 288 288 287 288 288 289 289 290 290 290 291 291 295 297 303 306 308 309 311 313 314 315
304 304 304 304 305 306 306 305 306 305 305 306 306 305 305 304 303 303 304 306 305 304 304 305 305 305 304 304 306 306 307 308 308 308 306 305 304 303 302 301 300 300 299 300 299 297 297 298 300 299 299 298 298 298 298 296 295 294 294 293 291 290 289 288 287 286 286 286 286 287 288 289 289 289 289 288 292 296 302 304 306 308 311 312 313
303 303 303 305 304 304 304 304 304 304 303 303 303 303 303 303 303 302 301 301 301 301 302 302 303 303 303 302 303 303 303 304 304 304 304 303 302 301 300 300 299 299 298 298 297 296 295 295 295 296 297 297 297 297 296 295 295 294 293 292 291 291 289 288 287 286 285 285 285 285 286 287 287 288 289 287 287 290 297 300 302 304 307 308 311
302 303 303 303 303 303 303 302 302 302 301 300 300 300 301 300 300 301 301 300 299 298 299 299 299 300 299 299 299 299 300 300 300 301 301 300 300 299 299 298 298 296 296 295 295 295 294 293 292 293 297 297 296 295 294 294 293 292 291 291 291 290 289 288 286 285 286 284 284 284 284 285 287 289 285 285 286 286 291 296 298 299 301 304 306
303 303 304 303 302 302 301 301 300 301 301 300 299 298 299 298 298 297 299 298 297 297 297 297 296 297 296 296 296 296 297 298 298 298 298 298 297 297 296 296 296 294 292 291 291 291 291 292 291 291 294 296 294 293 291 290 290 289 288 288 288 289 288 288 287 287 284 284 284 284 283 284 285 285 284 284 285 285 285 289 293 294 295 300 303
303 303 302 302 301 301 301 300 299 299 298 298 297 297 297 297 297 296 295 295 294 294 295 294 295 295 295 295 294 295 296 296 297 297 296 295 295 294 293 293 292 291 290 289 289 288 288 289 290 288 288 289 290 289 289 289 288 288 287 286 286 285 286 286 286 285 284 283 285 286 285 283 284 284 284 284 284 284 284 285 285 285 287 296 300
302 302 301 301 300 300 300 299 299 298 298 298 297 297 296 295 294 294 293 293 293 293 293 293 293 293 294 294 294 294 295 295 295 295 295 294 293 293 292 292 291 291 290 288 288 288 288 289 289 289 288 288 286 286 287 288 287 287 287 286 286 285 285 285 284 284 283 282 282 283 283 283 283 283 283 283 284 284 284 284 286 285 286 290 295
300 301 300 300 300 300 299 298 299 299 298 297 297 296 295 294 293 293 291 291 291 292 291 291 291 291 291 292 292 292 292 293 293 294 293 292 291 291 291 290 291 290 289 289 288 287 286 286 286 287 288 287 284 283 283 285 287 285 285 285 285 285 286 284 283 283 282 281 281 282 282 283 283 283 282 283 283 283 283 284 284 285 286 286 287
300 300 299 300 300 300 299 299 299 299 299 298 297 296 295 294 292 291 290 290 290 290 289 289 289 290 290 290 290 290 290 290 291 291 291 291 290 289 289 288 288 287 287 286 285 286 284 285 286 284 283 283 282 282 283 285 286 282 283 283 284 283 285 283 283 282 282 282 282 282 282 282 283 283 283 283 283 283 284 284 284 285 285 286 286
300 300 300 300 300 299 299 299 298 297 297 296 295 293 293 293 292 291 290 288 289 289 288 288 289 288 289 289 290 289 289 288 289 289 288 288 288 287 286 286 286 286 284 283 283 283 283 283 284 285 283 282 283 283 282 283 284 282 282 282 280 281 286 280 281 282 282 281 282 282 283 283 283 284 284 284 283 283 284 285 284 284 285 285 285
298 298 298 298 298 298 297 296 296 295 294 293 293 292 291 291 290 290 290 289 288 289 288 288 288 288 288 288 288 288 287 286 285 285 285 285 285 284 284 284 283 283 283 283 282 282 282 282 282 283 283 281 280 282 283 282 282 283 283 281 279 278 275 276 278 280 279 281 282 282 283 283 283 284 283 282 282 282 283 283 282 283 283 283 283
297 297 297 297 297 297 297 296 295 294 293 292 291 290 289 289 289 289 288 287 288 287 287 286 287 287 286 286 285 285 285 285 284 284 285 284 283 283 283 283 283 282 283 283 282 282 281 281 281 282 281 282 280 279 282 282 282 283 282 277 277 276 277 275 276 278 280 281 282 282 283 282 282 283 282 282 281 281 282 281 281 282 282 282 282
297 296 296 297 297 297 296 295 294 293 292 291 290 290 289 288 287 287 286 285 285 286 285 285 284 284 283 283 283 283 283 284 283 284 284 284 283 283 283 283 282 283 283 282 282 282 282 282 281 281 281 280 282 280 280 282 282 282 281 280 278 276 276 278 276 278 279 281 281 282 281 280 280 280 281 280 280 280 281 281 280 281 281 281 281
297 297 296 296 295 295 295 294 293 292 292 291 291 290 289 289 289 289 288 287 285 284 284 284 283 282 283 282 282 282 282 283 282 282 283 283 283 282 282 282 282 282 283 282 282 282 282 282 282 282 281 283 281 280 280 280 281 282 281 281 281 279 277 276 276 277 275 276 277 278 278 279 279 278 279 279 279 279 279 280 280 279 280 280 280
296 296 296 295 294 293 293 292 291 291 291 291 290 290 289 289 288 287 287 285 285 283 283 282 282 282 281 281 281 281 282 282 282 282 282 283 282 282 282 282 282 282 283 282 281 281 282 282 282 281 281 280 280 281 279 278 279 279 281 280 280 279 278 278 276 276 277 274 274 275 275 278 278 277 278 278 278 278 278 279 279 278 279 279 279
296 295 295 294 294 293 292 292 291 290 290 290 290 289 288 288 287 286 284 284 283 283 283 284 282 281 281 280 281 280 281 281 281 281 281 282 282 281 281 281 281 281 282 281 281 280 280 280 280 281 280 280 280 279 279 278 280 279 278 278 278 277 277 277 276 276 276 274 272 274 274 275 275 275 277 277 278 278 278 278 280 278 280 278 278
296 296 295 294 294 293 292 291 290 290 290 289 288 287 287 286 285 284 283 282 283 282 282 281 280 280 280 279 280 280 280 280 281 280 281 281 281 281 281 281 281 281 282 280 280 280 280 280 280 280 280 280 279 279 279 277 278 277 277 278 277 276 276 276 276 274 274 274 274 273 274 273 273 274 276 276 277 277 277 277 277 278 278 277 277
295 294 293 293 293 293 291 290 290 290 289 287 285 284 284 284 284 283 283 282 282 281 280 280 279 279 279 279 279 279 279 279 280 280 280 280 281 281 281 281 281 282 281 280 279 280 279 279 279 279 279 279 279 279 280 278 278 278 277 277 277 277 277 276 275 276 274 274 273 273 273 274 274 273 274 276 278 276 276 276 277 277 277 277 277
Wind_Speed
4 6 7 10 10 9 10 11 12 11 14 13 12 11 11 11 11 11 11 11 12 12 12 11 11 12 12 13 14 14 15 16 16 16 16 16 17 17 17 16 16 16 16 16 15 15 15 14 14 14 14 14 14 14 14 14 14 14 14 14 14 14 13 14 15 15 16 17 17 18 17 17 19 17 18 18 19 19 18 18 15 10 8 10 15
6 5 4 8 15 10 10 10 13 14 13 13 12 12 11 11 10 10 11 11 11 11 12 11 11 11 12 13 13 14 15 15 15 15 15 15 16 16 16 15 16 15 15 15 15 15 15 14 14 13 14 14 14 14 13 14 14 14 14 14 14 14 13 14 15 15 15 15 15 16 16 18 18 18 18 17 18 18 16 16 17 10 7 16 16
4 5 3 5 9 10 10 12 12 12 14 13 12 11 11 11 10 10 11 11 11 11 12 11 11 12 12 12 13 13 14 15 15 15 15 15 15 15 15 15 15 15 15 15 16 15 15 15 14 14 13 13 13 14 14 13 13 14 14 14 14 13 14 14 14 14 15 15 15 16 15 13 16 17 17 16 16 17 17 16 17 14 10 19 17
6 4 3 6 8 8 9 11 9 9 12 12 12 10 10 11 11 11 11 11 11 11 12 12 12 11 12 12 12 13 14 14 14 14 14 14 14 14 14 14 14 15 15 15 15 15 14 14 14 14 13 13 13 13 13 13 13 14 14 15 14 13 14 14 14 14 14 13 13 9 6 7 9 16 16 16 17 17 16 16 17 17 18 17 19
5 4 4 4 4 6 8 8 9 10 11 11 10 10 10 10 11 11 10 11 11 11 11 11 11 11 12 12 12 12 13 14 14 14 13 13 13 14 14 14 15 15 14 14 14 14 13 13 13 13 13 13 13 12 12 12 13 13 14 15 13 13 15 14 14 14 13 13 12 8 6 7 6 14 16 17 17 17 17 17 17 17 17 19 18
4 4 4 3 3 5 7 9 11 11 11 11 10 10 9 9 9 9 10 11 11 11 11 11 11 11 11 12 12 12 13 13 13 13 13 13 14 15 14 14 14 13 13 14 13 13 13 13 13 13 13 13 13 13 12 12 13 13 14 14 13 15 15 14 14 13 12 11 9 6 6 6 5 7 16 16 16 17 17 17 17 16 17 18 17
7 4 4 4 3 5 6 9 10 11 11 11 11 10 9 8 9 9 10 11 11 10 11 11 10 10 10 11 11 12 12 12 12 13 13 13 14 14 13 12 12 13 13 13 13 13 13 13 13 13 14 14 14 13 13 13 13 14 14 14 15 16 14 14 12 12 11 7 5 5 6 6 5 4 16 15 16 16 17 17 17 17 17 17 18
3 4 4 4 3 5 7 8 10 10 11 11 11 10 10 9 9 9 9 10 9 10 10 10 10 10 10 11 11 11 12 12 12 13 13 14 15 13 12 12 12 12 13 13 13 13 13 13 13 13 14 14 14 14 14 14 14 15 14 14 17 16 14 13 12 11 10 6 5 5 6 5 5 4 14 15 15 18 17 17 16 16 17 18 16
4 4 4 4 3 7 7 7 9 10 10 11 11 10 10 9 7 8 10 9 9 9 10 10 9 9 9 10 10 11 12 13 13 13 13 14 13 12 11 11 12 13 13 13 13 14 13 13 13 14 14 14 14 14 14 15 15 15 15 15 15 15 14 13 12 10 6 5 5 5 5 4 4 4 13 15 16 17 15 13 11 15 17 16 16
3 3 3 3 3 7 7 6 9 10 9 10 10 10 10 9 8 9 10 9 8 9 9 9 9 9 9 9 9 11 11 12 13 13 13 13 12 11 11 11 12 12 13 13 13 13 13 13 14 14 14 14 14 14 15 15 16 16 16 16 16 15 14 13 12 9 6 5 5 5 5 7 4 4 12 15 15 16 14 16 13 12 12 16 17
3 3 3 3 4 7 8 7 7 8 9 9 10 10 10 9 9 9 10 9 9 9 9 9 9 9 9 9 10 10 11 11 12 12 12 11 11 11 12 12 12 12 12 13 13 13 13 14 14 14 14 14 14 15 16 16 16 16 17 16 16 15 14 13 10 6 6 6 6 6 6 9 5 5 14 15 15 16 15 16 14 14 16 17 18
4 3 3 2 4 7 8 8 7 10 9 8 9 10 9 9 8 8 8 8 9 8 8 9 9 9 9 10 10 10 11 11 12 12 11 11 11 11 11 11 11 12 12 12 13 13 13 14 14 14 14 13 14 15 16 16 16 16 16 16 15 14 13 13 7 6 6 6 6 6 6 6 5 9 16 13 14 15 15 15 16 16 17 18 18
2 3 3 2 2 5 7 7 9 9 8 8 5 9 9 9 8 8 8 8 8 8 8 7 8 9 10 10 10 11 11 11 12 12 11 11 11 10 10 10 10 11 12 12 13 13 13 14 14 14 14 14 15 15 16 17 16 16 16 15 15 14 13 13 7 7 6 6 6 6 7 6 4 13 15 12 14 14 15 15 16 16 16 16 17
3 3 3 3 3 5 7 7 7 9 9 8 9 5 9 8 8 9 9 8 7 7 8 8 8 9 10 10 10 10 11 10 11 11 12 11 10 10 10 10 11 11 12 12 13 13 13 14 15 15 15 15 15 16 18 17 17 16 16 16 14 13 12 9 7 6 6 6 6 6 6 6 5 14 15 12 13 14 14 15 16 14 14 15 16
4 3 4 3 4 3 5 5 7 7 8 9 9 5 5 7 8 8 9 8 7 7 8 8 8 9 10 10 11 11 11 11 11 11 11 11 10 10 9 10 11 12 12 12 13 14 14 14 15 15 15 15 16 17 18 18 17 17 17 16 16 14 12 7 7 6 6 6 6 7 7 6 8 13 14 13 14 14 14 14 14 14 14 14 14
4 3 2 3 3 3 3 4 6 5 5 8 10 7 4 4 6 7 8 8 8 7 8 7 8 9 10 10 10 11 11 11 10 11 11 11 11 10 10 10 11 12 12 12 13 13 14 14 14 15 15 15 15 17 18 18 17 16 16 16 15 15 13 7 6 7 6 7 7 6 7 7 9 13 14 12 13 13 13 13 14 13 14 14 14
7 6 6 5 2 4 4 3 4 8 6 6 6 5 4 3 4 6 5 7 7 8 8 7 8 10 10 9 9 8 8 9 10 11 10 10 11 10 9 10 11 12 11 11 12 13 14 14 14 14 14 14 15 16 17 17 16 15 15 14 14 14 13 9 7 6 6 7 6 7 7 7 9 12 14 13 12 13 14 14 14 13 12 13 13
7 8 7 5 9 7 6 2 4 6 5 5 7 9 6 4 4 2 5 7 8 7 8 7 8 8 9 8 8 7 7 8 7 9 10 9 10 10 9 10 11 12 11 11 12 13 14 14 15 15 15 15 15 15 16 16 16 15 14 14 13 13 12 9 7 6 7 7 7 6 6 11 12 12 14 13 11 13 12 12 13 11 12 13 12
8 7 5 8 9 7 7 6 3 6 6 4 4 6 8 4 3 3 3 6 7 7 7 6 7 8 8 8 8 7 6 7 8 9 9 9 8 8 8 9 11 11 11 11 12 12 13 14 15 15 15 15 15 16 16 16 15 15 14 13 13 12 12 8 7 7 7 7 6 7 7 16 11 13 14 11 11 13 11 12 12 11 11 12 12
6 7 8 7 5 5 5 4 4 4 2 2 5 6 5 6 5 1 3 1 5 7 7 6 7 7 8 8 8 6 6 6 9 8 9 9 9 6 7 9 11 11 11 11 11 12 12 13 14 14 15 15 15 15 15 16 15 14 14 13 11 10 8 7 6 8 7 7 7 7 11 17 15 12 12 14 15 16 16 16 15 14 11 11 11
5 6 5 6 5 5 6 5 7 7 4 2 1 3 5 7 6 5 4 5 6 7 7 7 6 5 5 6 7 4 4 4 5 5 8 6 8 8 7 8 10 11 11 11 11 11 12 13 13 13 13 13 11 12 13 14 14 14 13 12 11 8 7 7 7 7 7 7 8 7 15 15 15 16 16 15 16 16 16 15 14 15 16 16 14
5 6 5 6 6 5 5 5 4 6 5 4 0 2 3 3 4 3 3 5 5 6 6 5 5 4 5 4 3 4 4 4 5 5 5 7 7 8 7 8 8 8 10 11 11 11 12 13 13 12 11 10 9 7 6 9 12 12 11 10 8 6 7 7 7 8 8 8 8 11 16 16 16 16 16 15 16 15 15 15 16 17 17 17 15
4 6 5 6 5 4 5 4 4 4 5 5 2 2 3 3 3 4 4 4 5 6 5 6 4 5 4 4 3 3 3 4 5 5 5 7 7 9 9 8 9 8 8 9 10 11 12 12 11 10 10 8 6 6 6 6 6 9 9 8 6 7 7 8 8 8 8 8 7 16 17 16 16 16 15 16 16 16 15 15 15 15 18 18 18
3 2 5 4 4 4 5 4 5 5 3 3 4 2 3 4 4 4 3 3 2 2 4 4 3 4 5 3 3 3 3 3 5 7 7 5 4 5 7 7 10 9 9 7 8 9 10 10 10 9 7 5 6 6 6 6 6 6 6 7 7 7 8 7 7 8 8 8 9 18 19 17 16 16 16 16 17 17 16 15 15 15 16 18 19
2 4 3 5 5 5 5 4 4 3 3 3 3 2 2 5 4 3 3 4 4 3 3 4 3 4 4 4 4 4 4 3 3 4 4 4 5 5 4 4 4 5 7 5 5 5 5 5 5 6 6 6 7 6 5 6 6 6 7 7 7 8 8 8 8 8 8 8 11 19 20 20 18 18 18 18 18 17 17 17 17 17 17 17 19
3 3 4 5 5 5 5 4 4 3 3 1 1 2 3 5 4 4 4 4 5 5 4 3 4 3 2 2 4 5 4 4 4 4 4 3 5 5 5 4 4 5 4 5 5 4 4 5 6 6 6 6 7 6 5 6 6 7 7 7 8 8 8 8 8 8 8 8 12 20 20 20 19 20 20 19 19 19 19 18 19 18 17 19 19
4 3 3 3 4 4 4 5 4 2 1 2 2 2 4 3 4 5 5 5 4 5 4 4 4 4 3 3 2 3 3 4 5 4 4 3 3 3 3 2 3 3 3 5 5 4 5 6 6 6 5 7 7 6 6 6 7 8 8 8 8 9 8 8 8 8 8 9 12 22 20 21 22 22 21 21 21 20 20 19 19 19 18 19 20
2 4 4 3 4 5 5 4 3 1 2 3 4 5 4 6 7 6 7 4 5 6 5 4 4 5 4 4 2 2 2 2 2 4 4 4 4 4 4 3 4 3 5 4 4 5 6 6 6 6 7 7 7 6 6 7 8 8 9 9 9 9 8 8 8 9 8 9 11 19 22 23 23 23 23 23 23 22 21 20 19 19 19 19 20
1 3 4 4 5 5 5 3 2 2 3 4 5 5 5 6 6 6 7 3 5 5 5 4 5 5 5 5 3 3 5 5 4 4 4 5 4 5 5 5 5 4 5 5 5 6 6 6 6 7 7 7 6 6 6 8 7 7 9 9 9 9 9 9 9 9 8 8 10 16 23 23 24 24 24 24 23 23 23 23 22 21 21 21 20
2 2 3 4 4 5 4 4 3 3 4 5 4 6 5 6 6 7 6 4 5 4 5 6 5 5 5 5 5 4 5 6 6 4 7 6 6 6 6 6 6 5 6 6 6 7 6 6 6 7 8 7 7 5 7 9 9 8 9 10 8 8 8 9 9 8 8 8 8 11 19 21 23 24 24 24 24 23 23 24 23 23 24 22 21
1 2 2 3 3 4 5 5 5 5 4 6 5 6 5 6 6 5 6 6 5 4 4 6 6 6 5 6 6 5 6 6 6 6 6 7 7 7 7 6 7 6 6 7 6 7 6 6 6 6 7 7 6 5 7 9 8 8 8 10 7 8 8 8 8 8 8 8 8 8 11 18 21 23 24 24 24 24 24 23 23 23 24 23 21
2 2 2 3 3 5 4 5 5 5 6 6 6 6 6 6 7 3 6 5 5 4 6 6 5 5 6 7 6 6 6 6 7 7 7 7 7 7 6 8 7 6 5 6 7 7 7 6 7 7 6 7 7 7 7 9 9 7 9 9 8 8 8 8 8 8 8 8 8 8 8 10 17 21 22 24 24 24 24 23 23 23 23 23 22
1 2 2 3 4 4 4 5 5 5 6 7 6 5 7 6 7 5 5 6 4 4 7 6 5 7 6 7 7 6 6 7 7 8 8 8 7 8 7 7 6 6 6 7 8 8 7 7 7 6 6 6 9 8 8 9 9 8 9 8 8 8 7 8 8 8 8 8 8 8 8 8 9 14 19 22 23 24 24 24 24 23 24 23 23
0 1 1 3 3 2 3 4 5 6 7 7 5 4 8 5 6 5 6 6 3 6 7 6 5 6 6 6 7 7 7 6 8 8 7 8 8 8 7 6 6 6 6 6 7 6 6 8 6 8 7 8 8 7 9 9 7 7 8 7 8 7 7 8 8 7 7 8 7 8 8 8 8 9 10 17 21 22 24 24 24 24 24 24 23
0 2 2 4 4 4 3 3 5 7 7 8 7 7 8 5 5 5 6 5 4 7 6 5 5 6 6 6 7 8 7 6 6 8 8 8 9 8 8 6 6 7 8 6 7 6 5 8 7 9 8 8 8 8 9 8 8 9 7 7 7 6 8 8 8 8 8 7 8 8 8 8 8 8 9 9 12 19 22 24 24 24 25 24 24
1 2 3 4 5 4 4 5 6 7 7 7 7 7 8 5 6 6 6 6 4 6 6 5 3 6 7 7 7 7 7 7 6 6 8 7 7 8 7 6 7 8 7 7 6 8 6 7 6 6 10 8 9 8 7 8 8 8 7 7 6 7 7 7 8 8 6 7 8 8 8 8 8 8 8 8 8 11 21 21 23 24 24 25 24
1 2 4 4 5 5 5 6 7 7 8 7 7 8 7 7 8 7 6 6 5 7 5 4 5 7 6 7 6 7 7 7 6 5 8 8 7 8 6 6 6 7 7 7 7 6 6 7 7 6 6 9 10 10 8 8 8 8 7 8 7 8 8 7 7 6 6 9 7 7 8 8 8 8 8 8 8 8 13 20 20 21 22 23 24
2 2 3 4 5 4 4 5 7 7 6 6 8 7 6 7 7 5 7 8 6 5 5 5 7 7 6 7 6 6 7 7 6 6 8 7 7 7 6 7 7 7 7 6 7 7 5 6 9 7 6 8 8 9 9 7 7 7 8 8 7 8 6 7 6 6 8 8 7 8 7 7 8 8 8 8 8 8 8 12 17 17 20 22 23
2 4 4 5 4 5 5 5 6 7 7 7 7 8 8 8 7 6 8 6 5 6 6 7 6 7 6 6 6 6 6 6 6 7 8 8 7 7 7 7 6 7 7 8 8 7 7 7 11 9 9 8 8 6 7 8 8 8 8 7 7 7 6 6 6 8 8 7 7 7 7 8 7 8 8 8 8 8 9 9 9 9 11 21 21
3 4 5 5 5 5 5 5 4 5 6 7 6 6 6 6 7 7 8 6 5 7 7 6 6 6 6 6 6 6 6 6 6 7 8 7 7 7 7 6 6 7 9 9 7 6 8 10 8 11 11 9 7 6 5 9 8 9 7 6 6 6 7 6 8 7 7 7 6 6 7 7 8 8 8 8 8 8 9 9 8 9 8 13 21
3 4 5 5 5 5 6 6 5 5 5 5 5 5 6 7 6 5 8 4 5 6 6 6 6 6 6 7 7 6 6 6 6 6 8 7 7 6 7 7 6 7 9 7 6 8 6 7 7 6 9 9 6 4 2 2 9 7 6 6 6 4 5 7 8 7 7 6 6 6 6 7 7 8 7 7 7 8 8 8 8 8 9 8 11
4 4 4 4 5 6 6 6 4 4 3 3 4 4 3 3 6 6 6 5 5 5 5 5 6 5 6 7 6 6 6 6 6 6 7 7 7 7 7 7 7 8 8 7 6 6 6 6 8 8 4 5 4 3 4 1 3 5 6 2 2 2 3 7 8 6 6 6 6 7 7 7 8 7 7 7 8 8 8 8 8 9 9 9 9
6 5 3 5 5 5 6 5 4 4 4 4 4 6 5 6 5 5 4 6 6 5 6 5 5 7 6 6 6 5 6 6 6 6 7 6 7 7 6 6 6 6 8 8 7 7 5 6 5 10 7 3 5 5 5 2 4 2 2 4 0 1 1 5 3 5 6 6 6 8 7 7 8 7 6 7 8 8 7 8 9 9 9 9 9
5 5 5 5 5 5 4 4 5 4 5 5 6 7 8 10 9 8 6 5 6 5 6 6 7 6 7 6 6 5 6 6 5 5 6 6 6 7 6 6 6 4 7 8 7 6 6 5 6 5 8 6 3 6 6 5 3 5 1 0 1 2 1 2 2 2 3 4 7 7 7 7 7 7 6 7 7 6 7 6 8 8 8 9 8
6 6 6 5 5 5 5 5 5 5 5 6 7 9 10 10 9 10 8 8 6 5 6 7 5 5 5 6 6 5 5 6 5 6 6 7 6 6 6 6 7 5 6 8 7 6 5 4 4 5 4 9 5 3 6 5 6 2 6 3 1 2 0 1 1 0 3 3 4 5 6 7 7 6 6 6 6 6 7 7 7 7 8 8 8
7 5 5 5 6 6 5 6 5 6 7 7 7 7 8 12 10 8 7 5 6 4 5 7 6 5 5 2 5 5 5 5 5 6 6 6 7 6 5 7 7 7 6 7 6 6 6 7 4 5 6 4 10 5 4 4 7 9 7 3 1 2 3 1 2 1 2 1 3 3 4 7 5 5 5 5 7 6 6 6 6 7 7 7 8
6 5 6 6 6 7 7 6 6 6 6 7 7 6 6 5 8 10 10 10 9 2 3 4 4 5 5 5 5 5 5 6 5 5 5 5 6 6 7 7 7 6 5 7 8 7 6 5 4 7 5 3 5 8 7 4 5 8 7 7 9 7 4 2 0 1 2 2 4 5 4 7 7 5 5 4 5 6 6 5 6 5 7 7 7
6 6 7 6 7 7 7 7 6 6 6 7 6 5 6 6 6 6 6 5 8 9 6 4 3 3 6 5 5 5 5 4 5 5 5 6 7 7 6 6 8 6 7 7 7 5 6 6 6 5 5 6 6 9 5 4 7 2 4 7 7 7 6 7 3 2 2 0 2 4 2 7 7 5 4 5 5 5 5 5 5 5 6 6 6
7 8 8 7 7 6 6 6 6 7 7 7 6 4 3 4 7 9 8 5 6 7 6 4 5 3 7 4 5 4 5 5 5 6 5 6 5 6 6 7 8 6 7 7 6 6 6 6 6 7 7 6 6 4 6 6 6 5 5 5 6 6 6 5 3 4 2 1 3 1 5 6 3 3 6 4 5 4 4 4 3 4 6 6 7
7 7 7 7 7 7 7 8 8 6 6 6 5 5 5 6 8 7 12 9 6 5 5 7 4 4 6 5 4 5 5 6 5 5 6 5 5 6 7 7 7 6 6 7 6 7 6 7 5 6 6 8 5 6 6 5 5 3 3 4 4 2 3 4 4 3 2 2 1 3 2 3 6 5 3 5 7 5 4 4 4 6 6 6 6
6 7 7 7 7 8 8 8 8 6 6 6 6 6 6 5 8 10 12 13 9 9 8 7 5 4 7 5 5 5 4 5 5 5 4 4 5 5 6 6 6 6 6 6 6 7 6 7 6 7 7 7 6 7 7 5 5 6 6 6 5 4 3 3 2 3 2 1 2 2 2 2 3 6 5 4 5 4 3 2 5 6 5 5 5
Wind_Direction
236 170 157 176 169 181 173 137 133 139 137 130 128 123 120 113 107 102 100 99 94 92 92 95 96 91 87 86 86 89 88 86 86 84 80 78 75 70 65 60 56 54 51 49 47 47 46 45 45 43 41 40 39 39 37 34 33 39 41 42 43 51 65 67 62 54 49 46 44 42 42 42 45 50 50 46 48 46 37 35 35 27 30 38 39
178 193 163 163 166 161 151 144 149 147 135 131 128 123 118 111 108 106 101 98 93 88 86 87 88 89 88 87 88 87 86 87 85 83 81 78 76 73 69 63 57 53 50 48 46 44 45 45 45 43 42 40 38 37 38 37 33 37 41 43 47 64 74 71 63 60 58 55 51 47 42 44 43 44 48 45 45 46 41 36 33 33 29 42 42
149 153 162 166 152 148 155 149 155 145 134 131 127 123 118 116 115 114 107 101 97 94 90 87 88 91 91 92 90 90 89 87 84 80 79 77 75 72 69 65 59 54 49 46 43 41 40 41 42 43 43 43 42 40 38 37 34 36 44 50 60 69 76 73 66 63 60 55 51 49 42 33 42 42 43 45 45 44 40 36 33 31 30 33 34
143 157 144 163 152 148 155 154 148 135 130 129 127 123 120 118 118 116 112 107 101 98 96 90 88 88 89 92 93 89 86 85 83 83 81 80 77 75 70 64 58 52 48 44 42 41 40 41 40 42 42 42 43 43 42 39 36 38 47 57 64 74 77 73 69 63 58 53 49 41 34 28 27 42 44 45 45 43 39 36 32 30 29 28 29
151 145 139 152 148 146 150 146 146 144 128 125 124 123 120 119 120 121 117 108 103 105 99 94 93 92 93 96 96 95 91 89 90 89 87 83 79 74 68 59 55 52 50 47 44 42 42 42 42 43 43 42 42 43 44 43 43 44 49 54 68 84 83 76 69 65 58 52 48 44 38 32 25 41 43 44 42 39 37 35 32 29 27 28 26
148 135 143 142 154 144 154 154 151 142 136 132 129 124 123 121 118 115 115 110 108 107 105 100 100 98 98 98 96 94 93 96 97 94 89 84 78 70 63 57 54 53 51 47 44 43 43 42 42 43 44 43 43 43 44 46 47 47 49 57 77 92 87 79 73 66 60 53 45 44 38 34 30 36 43 42 41 39 34 33 32 31 28 23 24
142 133 142 147 152 144 159 151 155 147 143 136 136 130 127 126 121 119 116 115 115 114 110 109 107 105 106 105 103 100 101 101 99 96 90 83 76 70 64 61 57 53 51 47 44 44 44 44 44 44 44 43 45 45 46 47 49 48 50 66 86 94 85 79 71 66 61 54 49 43 40 36 31 24 45 40 40 38 34 31 30 29 31 30 23
119 130 137 147 151 150 157 165 156 153 148 142 137 134 130 131 127 125 120 115 117 117 115 113 112 112 110 109 110 109 109 104 97 93 89 84 78 73 67 63 61 55 51 47 45 46 46 46 45 46 46 45 46 48 50 52 50 50 57 74 89 85 80 74 66 61 57 50 47 44 41 38 34 32 49 44 41 40 36 33 33 34 34 30 26
139 137 135 148 150 145 171 153 159 159 155 145 141 138 138 137 128 125 124 120 121 120 117 114 111 114 113 113 114 115 112 108 104 98 94 88 84 79 72 65 60 56 51 48 46 48 49 48 48 49 50 48 49 52 54 53 52 53 64 77 80 77 71 64 55 49 41 40 31 29 34 33 31 40 50 49 45 43 41 40 31 35 36 35 32
139 130 131 138 146 157 144 166 160 158 165 147 148 142 143 137 132 135 132 128 124 123 119 115 117 115 114 115 111 114 112 106 103 100 96 93 89 84 75 68 62 55 50 49 49 50 51 51 50 51 53 55 57 58 57 54 55 58 71 76 73 69 62 57 51 43 41 35 32 23 26 38 24 40 52 52 51 47 44 44 41 38 38 39 36
144 137 132 143 155 156 158 167 162 155 170 151 157 148 144 141 140 141 138 133 130 130 127 123 118 112 109 109 115 119 111 105 101 99 95 93 89 82 74 69 65 59 54 50 50 53 54 55 54 54 55 60 61 61 57 57 59 64 70 69 66 64 60 55 50 41 37 33 32 21 17 31 28 44 49 50 48 47 43 44 40 41 39 39 37
157 131 127 138 167 163 167 156 165 152 182 169 165 151 147 142 144 142 139 137 135 132 127 122 116 116 117 119 125 118 117 111 107 104 99 92 86 81 77 72 68 64 60 56 54 55 58 58 58 57 59 61 62 59 54 55 61 67 69 67 65 61 55 52 50 42 35 29 27 14 10 5 35 48 51 48 49 47 45 46 42 40 39 38 40
115 133 125 116 151 181 168 162 159 167 170 170 162 161 146 145 146 144 144 141 140 134 127 123 122 124 124 127 129 127 124 120 117 113 106 99 95 92 87 82 75 69 64 59 56 57 59 61 61 61 62 64 64 55 54 56 61 64 66 65 62 59 56 51 45 41 34 27 23 12 14 5 15 51 51 42 52 47 43 44 43 38 41 42 40
121 124 133 138 150 189 166 164 162 164 169 155 172 192 151 147 149 150 149 146 143 138 132 124 128 131 131 132 133 132 130 129 125 120 115 110 104 96 90 84 77 71 65 61 58 59 61 63 65 67 65 68 60 55 55 56 58 59 60 59 55 53 49 46 41 36 33 26 18 12 14 5 32 55 49 42 44 44 45 45 44 42 41 48 46
121 124 136 144 158 169 165 162 151 179 167 163 150 204 180 145 147 155 157 148 144 142 137 130 133 133 137 139 142 141 140 138 134 128 119 112 107 99 93 86 80 73 69 65 63 61 63 67 71 71 69 65 61 58 57 57 56 55 55 53 50 46 42 44 36 27 23 18 13 9 3 357 37 56 52 43 44 41 44 44 40 40 41 44 53
51 69 105 126 143 130 150 156 180 164 173 160 158 180 193 152 148 159 158 152 143 143 138 137 135 137 141 145 149 148 146 146 138 129 118 115 112 105 95 87 84 78 74 70 65 62 63 68 73 74 73 70 66 63 61 63 62 60 57 55 51 46 41 44 36 25 15 14 9 7 353 344 31 53 50 41 52 46 45 44 43 38 43 39 45
31 34 49 31 73 118 135 155 168 149 188 158 140 148 181 214 137 146 158 149 150 138 139 142 140 143 147 149 151 150 146 147 142 130 119 117 115 107 104 95 86 83 79 75 67 63 63 67 69 68 69 70 69 68 67 67 68 66 64 60 56 51 46 42 39 23 16 13 11 0 347 333 54 53 52 45 41 48 44 44 42 40 41 44 40
35 34 35 19 34 17 12 327 157 161 151 151 155 169 186 179 129 148 162 149 154 147 147 147 146 148 148 147 146 145 142 141 122 120 120 117 116 115 111 100 91 86 85 80 71 63 60 61 62 62 62 62 63 65 68 69 69 68 65 61 57 52 47 45 42 27 22 18 11 354 352 353 52 60 56 48 42 49 44 42 46 41 36 38 37
30 26 17 23 25 18 1 342 244 153 147 154 159 170 173 145 133 133 142 154 152 144 140 141 140 146 147 142 143 143 135 124 121 120 115 114 112 115 113 105 99 94 92 84 76 67 62 60 59 59 58 59 61 63 63 62 62 61 60 58 53 48 44 42 38 32 26 20 8 3 346 10 52 65 55 49 43 43 41 30 32 39 35 31 29
32 11 21 18 7 13 5 326 345 25 42 154 170 164 158 156 163 156 124 91 137 125 129 135 140 146 144 140 132 122 109 109 121 119 117 116 118 124 120 111 107 104 96 89 81 74 64 62 62 61 60 56 53 51 56 62 62 62 61 58 53 47 43 40 36 34 25 17 9 0 10 16 36 48 51 43 38 33 31 30 21 23 28 27 27
21 24 21 1 358 8 349 338 13 8 360 346 160 127 149 163 173 166 157 119 142 145 139 125 120 121 122 114 110 103 105 111 122 126 122 121 130 134 124 113 113 109 102 94 88 82 74 68 68 68 63 58 50 48 44 53 56 57 56 53 51 49 44 45 39 33 27 16 12 0 21 22 25 42 43 37 31 27 28 31 31 35 29 16 13
348 344 5 360 359 357 340 351 4 344 337 346 99 128 130 175 167 161 156 139 143 141 123 106 97 92 98 120 123 130 135 136 134 132 132 136 139 140 132 123 112 103 103 96 91 87 84 81 77 73 67 61 59 56 49 47 50 56 57 55 51 47 41 45 45 35 28 18 11 13 28 29 27 36 36 35 31 27 24 25 28 28 30 35 30
0 353 336 354 352 326 347 337 349 327 333 336 355 162 138 161 188 175 156 147 150 145 126 131 139 138 151 154 142 153 155 151 147 149 145 149 151 153 142 133 115 106 98 96 92 91 92 92 87 81 72 62 57 60 62 60 53 49 54 55 56 48 45 43 44 39 29 19 14 18 29 35 34 36 35 34 32 31 26 27 25 27 27 33 41
323 326 319 321 343 343 329 328 324 332 330 325 341 323 191 171 184 184 151 115 93 124 133 134 131 145 162 155 148 161 162 160 152 138 135 141 136 141 141 127 115 106 93 79 75 85 86 83 83 78 69 59 55 49 56 58 57 55 55 52 52 47 48 44 44 41 33 22 20 23 28 38 39 38 40 38 36 33 31 31 30 31 29 29 32
295 304 332 337 334 333 327 320 326 316 322 325 330 318 254 177 188 169 127 121 119 102 103 102 114 157 172 149 158 168 172 175 160 150 153 147 145 152 145 141 120 117 109 90 89 76 69 67 63 63 60 58 50 35 39 51 49 50 52 49 52 48 47 44 45 44 35 28 29 33 34 37 40 41 42 42 40 37 36 34 34 33 32 31 30
323 7 343 329 328 323 314 301 310 291 284 269 292 292 263 192 185 127 111 106 107 101 89 81 98 99 120 155 166 169 173 183 182 165 146 151 154 164 153 138 124 125 118 108 89 79 66 61 56 57 51 56 51 35 31 44 54 55 53 51 53 54 53 48 45 45 36 31 30 37 38 37 40 43 42 42 40 37 37 37 37 34 33 33 32
347 334 329 318 314 318 316 308 310 292 297 97 73 66 51 67 64 86 100 101 97 91 83 78 69 68 68 43 164 174 178 183 179 171 141 145 147 133 96 83 103 97 95 93 85 85 69 63 59 60 59 60 50 33 35 42 48 62 59 58 57 58 56 54 52 49 40 36 30 32 39 43 43 45 44 41 40 38 37 36 35 35 35 33 32
332 330 329 315 329 329 321 308 296 266 87 70 84 68 66 73 72 78 75 71 91 93 79 76 73 67 55 69 17 89 85 121 117 116 118 110 84 64 77 86 72 58 57 76 82 71 70 69 71 63 68 63 61 44 43 45 47 59 67 58 58 58 59 58 57 52 47 43 39 34 39 42 45 45 45 43 42 41 40 38 36 35 33 31 33
351 318 320 337 339 326 316 342 344 95 87 82 81 79 74 78 75 75 68 16 84 77 84 72 67 59 44 49 52 77 92 75 62 82 77 78 68 88 90 74 74 70 77 67 78 76 69 68 67 73 71 65 54 45 54 55 55 57 71 63 60 61 60 59 55 53 49 47 43 37 37 39 41 42 42 42 42 41 40 39 38 37 35 34 33
320 315 324 335 322 318 343 3 6 33 70 81 76 86 73 78 76 80 82 52 61 67 87 73 69 69 62 53 52 71 80 94 89 55 95 83 82 68 66 73 62 59 77 76 79 81 77 71 68 74 75 68 60 37 63 66 60 58 68 71 59 61 61 62 57 54 51 45 41 35 32 37 38 38 39 40 41 41 40 39 37 36 35 35 35
311 330 328 320 326 348 14 12 37 35 57 83 70 90 78 78 68 74 82 65 58 44 69 78 68 64 61 63 60 58 75 79 84 92 80 81 71 71 70 67 65 48 67 81 71 79 77 72 67 73 80 77 65 52 69 72 67 64 67 69 61 62 62 61 61 55 52 45 43 39 30 31 35 34 34 36 38 39 39 38 37 37 36 35 35
334 333 336 335 355 3 9 10 42 52 64 68 73 81 71 70 58 32 77 60 53 65 64 58 63 70 63 68 62 62 75 74 80 76 78 77 73 74 70 74 68 60 60 83 85 81 78 71 70 67 70 82 81 67 65 78 70 66 69 68 64 62 58 59 58 56 52 47 42 38 36 29 30 32 30 29 33 35 37 37 36 35 35 34 35
337 329 337 5 16 16 19 21 40 44 50 71 76 71 69 54 69 37 61 66 48 59 75 70 64 66 65 69 70 70 69 87 82 83 87 84 84 84 79 74 80 81 71 70 86 86 87 80 65 74 69 70 75 74 73 70 73 67 69 66 67 60 58 58 55 53 50 46 41 37 35 31 29 26 26 26 25 31 34 35 35 34 34 34 34
288 352 17 43 24 22 33 46 32 56 61 68 53 72 70 55 78 63 52 53 61 82 64 62 63 72 68 69 77 70 70 78 96 92 90 92 85 79 81 73 66 68 58 52 57 61 77 78 69 69 60 70 73 73 83 79 74 71 68 67 65 57 57 56 51 51 49 47 40 39 32 32 30 29 23 22 22 25 30 33 34 33 33 33 32
120 75 56 73 56 38 34 57 53 68 74 76 67 65 79 71 71 74 65 56 40 64 71 70 64 78 75 67 71 77 74 75 82 102 95 95 96 88 76 78 82 79 74 58 71 59 58 74 79 85 80 77 77 73 82 84 82 72 64 64 63 60 56 56 50 46 44 44 44 38 34 32 29 29 25 22 17 18 26 29 31 30 30 30 31
125 103 88 76 67 52 55 81 68 72 72 78 85 73 74 75 70 58 67 58 57 73 56 54 68 77 71 66 58 70 71 71 74 87 96 90 92 92 92 90 81 80 79 77 74 75 76 80 62 86 100 88 87 80 81 84 78 75 66 63 60 58 59 51 47 45 35 45 42 38 34 34 33 30 27 26 22 15 22 25 28 27 27 28 29
125 121 111 98 84 80 71 80 86 79 78 85 90 87 80 77 75 68 66 60 56 65 60 46 61 64 61 63 55 65 69 69 74 81 97 95 93 93 90 88 87 87 86 84 75 70 75 88 68 50 81 102 94 93 83 82 81 75 69 64 54 58 54 49 47 43 40 46 38 35 34 31 33 30 29 28 24 20 17 24 26 27 24 27 28
120 116 110 109 110 100 85 91 99 98 92 86 92 88 87 83 80 75 69 61 47 57 63 57 60 60 62 64 58 65 70 73 75 84 89 88 89 91 87 79 80 81 79 77 76 64 59 81 85 52 52 88 93 94 92 85 83 77 67 63 57 58 53 50 46 45 46 40 36 35 32 30 31 28 26 26 26 21 22 18 23 26 23 26 28
112 112 108 103 99 97 96 92 107 114 109 97 90 95 91 82 77 79 71 66 57 48 58 57 54 60 59 63 62 63 68 77 84 90 95 95 92 89 87 84 87 89 86 77 69 72 77 72 92 88 67 64 85 83 98 99 88 78 72 61 62 60 57 54 48 46 41 39 37 30 33 29 31 27 25 24 20 23 21 22 23 21 17 22 25
114 113 116 118 116 110 105 109 104 112 114 110 108 99 95 97 99 88 74 59 44 59 49 50 52 55 48 58 61 65 65 70 73 82 86 88 92 87 88 85 86 90 87 83 83 80 93 94 85 98 93 76 58 63 77 99 88 81 79 65 57 64 59 58 53 46 41 35 31 31 31 21 31 25 25 19 22 21 22 22 24 20 20 20 24
118 129 129 138 139 135 131 126 127 121 122 126 117 116 116 109 81 80 97 56 62 65 58 50 50 49 51 56 55 55 59 70 75 87 95 93 90 93 91 79 85 90 91 87 93 95 88 102 99 73 97 97 55 14 16 87 109 81 68 70 55 31 61 63 53 43 40 34 32 39 25 27 24 25 17 20 24 22 24 23 22 23 21 21 19
154 145 153 154 142 137 128 131 135 126 106 108 116 98 78 87 114 110 103 87 74 63 66 51 54 49 52 54 56 56 63 67 71 86 92 99 103 96 91 97 95 91 89 94 89 90 100 101 113 82 31 96 75 2 328 74 40 132 124 90 34 4 51 56 54 36 32 33 34 36 28 28 21 19 14 22 22 21 22 21 25 25 25 25 22
153 155 155 148 139 135 138 145 134 124 104 87 102 101 93 83 91 97 82 95 65 73 79 72 64 69 48 45 46 52 67 68 69 76 91 90 95 99 94 93 87 101 102 85 85 82 83 93 102 121 107 66 94 33 16 27 144 130 125 90 24 61 307 10 10 35 23 34 34 32 24 21 16 15 16 24 22 18 18 20 25 26 27 28 25
149 147 158 152 138 142 143 131 125 114 108 100 100 93 91 91 80 85 67 62 104 87 80 72 71 51 51 45 35 50 58 73 66 76 82 79 87 94 96 85 79 69 98 101 86 79 75 82 92 96 121 94 53 37 16 17 106 137 80 93 178 118 10 345 351 301 348 38 45 37 25 16 8 6 17 24 16 17 14 21 27 28 29 29 28
168 167 164 162 148 148 139 130 126 120 111 114 116 119 110 93 96 89 88 91 72 77 85 60 36 56 65 49 39 37 55 69 66 70 82 85 77 80 85 85 82 65 78 88 82 84 73 69 70 81 71 125 99 109 27 26 50 6 142 113 51 35 204 239 46 286 354 14 22 47 28 18 7 2 6 12 16 22 11 16 24 30 30 31 29
175 172 160 149 142 142 133 131 122 123 128 128 135 134 137 133 130 120 115 104 104 101 103 118 112 81 80 53 49 40 50 65 62 68 75 84 84 80 82 82 74 65 65 84 94 83 66 69 43 94 84 61 125 118 91 29 58 49 54 81 134 169 180 243 104 222 330 56 1 23 49 10 3 1 355 15 13 7 14 13 22 26 32 32 29
175 156 146 143 143 147 149 144 142 136 136 142 150 143 141 138 140 143 143 143 130 63 42 38 86 91 82 72 65 50 44 73 67 70 78 81 87 81 82 83 84 80 74 80 71 66 64 58 44 69 70 107 114 100 108 134 79 43 43 55 58 51 77 115 134 77 14 321 16 349 352 6 347 354 356 7 10 9 1 15 19 31 38 36 30
161 153 150 145 151 153 151 149 143 142 147 153 160 163 154 145 119 108 109 123 136 135 124 99 65 92 88 77 74 63 55 56 80 73 74 80 86 82 83 86 83 73 79 74 81 72 73 53 58 63 62 52 75 111 105 28 97 45 26 52 54 49 48 56 71 138 133 309 309 335 331 350 340 328 340 351 5 9 359 1 19 35 49 35 33
164 161 160 160 152 153 148 141 146 147 154 162 160 149 136 134 131 127 107 65 96 113 113 99 103 95 96 76 80 75 70 59 61 76 69 77 82 93 91 88 87 81 83 83 76 74 77 81 68 62 68 53 53 75 96 93 97 130 108 57 58 58 50 46 37 55 113 117 292 346 319 326 347 320 330 340 349 6 10 353 26 56 48 37 27
169 160 156 152 156 153 152 153 155 157 157 153 141 126 129 131 129 128 125 122 114 105 116 119 122 122 107 100 90 83 74 70 58 60 75 73 86 86 88 91 91 90 88 95 97 88 84 83 83 89 87 86 61 74 92 94 87 72 81 133 104 69 48 35 33 43 32 92 147 288 312 344 334 301 325 335 341 343 354 359 47 57 43 38 27
166 159 157 159 158 158 159 166 165 155 156 152 142 144 141 147 140 143 139 137 142 139 134 127 132 127 121 113 101 90 71 77 69 60 65 73 77 77 87 84 85 89 92 92 92 96 91 88 83 78 73 85 85 89 85 77 87 76 67 76 89 103 140 123 118 62 115 105 29 316 306 278 245 302 290 316 323 330 331 14 71 59 51 32 37